Time,TemperatureF,DewpointF,PressureIn,WindDirection,WindDirectionDegrees,WindSpeedMPH,WindSpeedGustMPH,Humidity,HourlyPrecipIn,Conditions,Clouds,dailyrainin,SoftwareType,DateUTC
2013-05-20 00:00:00,60.7,45.8,29.92,WSW,246,0.0,0.0,58,0.00,,,0.00,WeatherCatV1.15B25,2013-05-20 07:00:00,
2013-05-20 00:05:00,60.6,46.6,29.92,WSW,246,0.0,0.0,60,0.00,,,0.00,WeatherCatV1.15B25,2013-05-20 07:05:00,
2013-05-20 00:10:00,60.3,46.8,29.92,WSW,246,0.0,0.0,61,0.00,,,0.00,WeatherCatV1.15B25,2013-05-20 07:10:00,
2013-05-20 00:15:00,59.9,47.7,29.91,WSW,246,0.0,0.0,64,0.00,,,0.00,WeatherCatV1.15B25,2013-05-20 07:15:00,
2013-05-20 00:20:00,59.5,46.9,29.92,WSW,246,0.0,0.0,63,0.00,,,0.00,WeatherCatV1.15B25,2013-05-20 07:20:00,
2013-05-20 00:25:00,59.1,46.9,29.92,WSW,246,0.0,0.0,64,0.00,,,0.00,WeatherCatV1.15B25,2013-05-20 07:25:00,
2013-05-20 00:30:00,58.7,47.0,29.92,WSW,246,0.0,0.0,65,0.00,,,0.00,WeatherCatV1.15B25,2013-05-20 07:30:00,
2013-05-20 00:35:00,58.4,46.7,29.91,WSW,246,0.0,0.0,65,0.00,,,0.00,WeatherCatV1.15B25,2013-05-20 07:35:00,
2013-05-20 00:40:00,58.3,46.6,29.91,WSW,246,0.0,0.0,65,0.00,,,0.00,WeatherCatV1.15B25,2013-05-20 07:40:00,
2013-05-20 00:45:00,58.0,45.5,29.91,WSW,246,0.0,0.0,63,0.00,,,0.00,WeatherCatV1.15B25,2013-05-20 07:45:00,
2013-05-20 00:50:00,57.9,45.4,29.91,WSW,246,0.0,0.0,63,0.00,,,0.00,WeatherCatV1.15B25,2013-05-20 07:50:00,
2013-05-20 00:55:00,57.7,45.2,29.92,WSW,246,0.0,0.0,63,0.00,,,0.00,WeatherCatV1.15B25,2013-05-20 07:55:00,
2013-05-20 01:00:00,57.6,45.1,29.92,WSW,246,0.0,0.0,63,0.00,,,0.00,WeatherCatV1.15B25,2013-05-20 08:00:00,
2013-05-20 01:05:00,57.4,44.9,29.91,WSW,246,0.0,0.0,63,0.00,,,0.00,WeatherCatV1.15B25,2013-05-20 08:05:00,
2013-05-20 01:10:00,57.1,45.4,29.91,WSW,246,0.0,0.0,65,0.00,,,0.00,WeatherCatV1.15B25,2013-05-20 08:10:00,
2013-05-20 01:15:00,56.9,45.3,29.91,WSW,246,0.0,0.0,65,0.00,,,0.00,WeatherCatV1.15B25,2013-05-20 08:15:00,
2013-05-20 01:20:00,56.6,45.4,29.91,WSW,246,0.0,0.0,66,0.00,,,0.00,WeatherCatV1.15B25,2013-05-20 08:20:00,
2013-05-20 01:25:00,56.4,45.6,29.91,WSW,246,0.0,0.0,67,0.00,,,0.00,WeatherCatV1.15B25,2013-05-20 08:25:00,
2013-05-20 01:30:00,56.2,46.2,29.91,WSW,246,0.0,0.0,69,0.00,,,0.00,WeatherCatV1.15B25,2013-05-20 08:30:00,
2013-05-20 01:35:00,56.0,46.7,29.91,WSW,246,0.0,0.0,71,0.00,,,0.00,WeatherCatV1.15B25,2013-05-20 08:35:00,
2013-05-20 01:40:00,55.7,46.4,29.91,WSW,246,0.0,0.0,71,0.00,,,0.00,WeatherCatV1.15B25,2013-05-20 08:40:00,
2013-05-20 01:45:00,55.5,46.2,29.91,WSW,246,0.0,0.0,71,0.00,,,0.00,WeatherCatV1.15B25,2013-05-20 08:45:00,
2013-05-20 01:50:00,55.3,46.1,29.91,WSW,246,0.0,0.0,71,0.00,,,0.00,WeatherCatV1.15B25,2013-05-20 08:50:00,
2013-05-20 01:55:00,55.1,45.5,29.91,WSW,246,0.0,0.0,70,0.00,,,0.00,WeatherCatV1.15B25,2013-05-20 08:55:00,
2013-05-20 02:00:00,54.9,44.9,29.91,WSW,246,0.0,0.0,69,0.00,,,0.00,WeatherCatV1.15B25,2013-05-20 09:00:00,
2013-05-20 02:05:00,54.7,45.1,29.91,WSW,246,0.0,0.0,70,0.00,,,0.00,WeatherCatV1.15B25,2013-05-20 09:05:00,
2013-05-20 02:10:00,54.6,45.4,29.91,WSW,246,0.0,0.0,71,0.00,,,0.00,WeatherCatV1.15B25,2013-05-20 09:10:00,
2013-05-20 02:15:00,54.5,44.9,29.91,WSW,246,0.0,0.0,70,0.00,,,0.00,WeatherCatV1.15B25,2013-05-20 09:15:00,
2013-05-20 02:20:00,54.4,44.8,29.91,WSW,246,0.0,1.0,70,0.00,,,0.00,WeatherCatV1.15B25,2013-05-20 09:20:00,
2013-05-20 02:25:00,54.3,44.7,29.91,WSW,246,0.0,0.0,70,0.00,,,0.00,WeatherCatV1.15B25,2013-05-20 09:25:00,
2013-05-20 02:30:00,54.2,44.6,29.90,WSW,246,0.0,0.0,70,0.00,,,0.00,WeatherCatV1.15B25,2013-05-20 09:30:00,
2013-05-20 02:35:00,54.2,44.6,29.90,WSW,246,0.0,0.0,70,0.00,,,0.00,WeatherCatV1.15B25,2013-05-20 09:35:00,
2013-05-20 02:40:00,54.1,44.9,29.91,WSW,246,0.0,0.0,71,0.00,,,0.00,WeatherCatV1.15B25,2013-05-20 09:40:00,
2013-05-20 02:45:00,53.9,45.1,29.90,WSW,246,0.0,0.0,72,0.00,,,0.00,WeatherCatV1.15B25,2013-05-20 09:45:00,
2013-05-20 02:50:00,53.8,45.0,29.90,WSW,246,0.0,0.0,72,0.00,,,0.00,WeatherCatV1.15B25,2013-05-20 09:50:00,
2013-05-20 02:55:00,53.6,45.2,29.90,WSW,246,0.0,0.0,73,0.00,,,0.00,WeatherCatV1.15B25,2013-05-20 09:55:00,
2013-05-20 03:00:00,53.5,45.1,29.90,WSW,246,0.0,0.0,73,0.00,,,0.00,WeatherCatV1.15B25,2013-05-20 10:00:00,
2013-05-20 03:05:00,53.4,45.7,29.90,WSW,246,0.0,0.0,75,0.00,,,0.00,WeatherCatV1.15B25,2013-05-20 10:05:00,
2013-05-20 03:10:00,53.2,45.5,29.90,WSW,246,0.0,0.0,75,0.00,,,0.00,WeatherCatV1.15B25,2013-05-20 10:10:00,
2013-05-20 03:15:00,53.1,45.4,29.90,WSW,246,0.0,0.0,75,0.00,,,0.00,WeatherCatV1.15B25,2013-05-20 10:15:00,
2013-05-20 03:20:00,52.9,44.8,29.90,WSW,246,0.0,0.0,74,0.00,,,0.00,WeatherCatV1.15B25,2013-05-20 10:20:00,
2013-05-20 03:25:00,52.7,44.6,29.90,WSW,246,0.0,0.0,74,0.00,,,0.00,WeatherCatV1.15B25,2013-05-20 10:25:00,
2013-05-20 03:30:00,52.6,44.2,29.90,WSW,246,0.0,0.0,73,0.00,,,0.00,WeatherCatV1.15B25,2013-05-20 10:30:00,
2013-05-20 03:35:00,52.4,44.0,29.90,WSW,246,0.0,0.0,73,0.00,,,0.00,WeatherCatV1.15B25,2013-05-20 10:35:00,
2013-05-20 03:40:00,52.3,43.9,29.90,WSW,246,0.0,0.0,73,0.00,,,0.00,WeatherCatV1.15B25,2013-05-20 10:40:00,
2013-05-20 03:45:00,52.3,43.9,29.90,WSW,246,0.0,0.0,73,0.00,,,0.00,WeatherCatV1.15B25,2013-05-20 10:45:00,
2013-05-20 03:50:00,52.2,44.2,29.90,WSW,246,0.0,0.0,74,0.00,,,0.00,WeatherCatV1.15B25,2013-05-20 10:50:00,
2013-05-20 03:55:00,52.1,44.1,29.90,WSW,246,0.0,0.0,74,0.00,,,0.00,WeatherCatV1.15B25,2013-05-20 10:55:00,
2013-05-20 04:00:00,52.0,44.3,29.90,WSW,246,0.0,0.0,75,0.00,,,0.00,WeatherCatV1.15B25,2013-05-20 11:00:00,
2013-05-20 04:05:00,51.9,44.2,29.90,WSW,246,0.0,0.0,75,0.00,,,0.00,WeatherCatV1.15B25,2013-05-20 11:05:00,
2013-05-20 04:10:00,51.7,44.4,29.90,WSW,246,0.0,0.0,76,0.00,,,0.00,WeatherCatV1.15B25,2013-05-20 11:10:00,
2013-05-20 04:15:00,51.7,45.1,29.90,WSW,246,0.0,0.0,78,0.00,,,0.00,WeatherCatV1.15B25,2013-05-20 11:15:00,
2013-05-20 04:20:00,51.6,45.3,29.90,WSW,246,0.0,0.0,79,0.00,,,0.00,WeatherCatV1.15B25,2013-05-20 11:20:00,
2013-05-20 04:25:00,51.8,45.8,29.90,WSW,246,0.0,1.0,80,0.00,,,0.00,WeatherCatV1.15B25,2013-05-20 11:25:00,
2013-05-20 04:30:00,52.0,46.0,29.90,WSW,246,0.0,0.0,80,0.00,,,0.00,WeatherCatV1.15B25,2013-05-20 11:30:00,
2013-05-20 04:35:00,52.0,46.0,29.90,WSW,246,0.0,0.0,80,0.00,,,0.00,WeatherCatV1.15B25,2013-05-20 11:35:00,
2013-05-20 04:40:00,52.0,46.0,29.90,WSW,246,0.0,0.0,80,0.00,,,0.00,WeatherCatV1.15B25,2013-05-20 11:40:00,
2013-05-20 04:45:00,52.0,46.0,29.91,WSW,246,0.0,0.0,80,0.00,,,0.00,WeatherCatV1.15B25,2013-05-20 11:45:00,
2013-05-20 04:50:00,51.9,45.9,29.91,WSW,246,0.0,0.0,80,0.00,,,0.00,WeatherCatV1.15B25,2013-05-20 11:50:00,
2013-05-20 04:55:00,51.8,45.8,29.91,WSW,246,0.0,0.0,80,0.00,,,0.00,WeatherCatV1.15B25,2013-05-20 11:55:00,
2013-05-20 05:00:00,51.8,46.2,29.91,WSW,246,0.0,0.0,81,0.00,,,0.00,WeatherCatV1.15B25,2013-05-20 12:00:00,
2013-05-20 05:05:00,51.8,46.2,29.91,WSW,246,0.0,0.0,81,0.00,,,0.00,WeatherCatV1.15B25,2013-05-20 12:05:00,
2013-05-20 05:10:00,51.8,46.2,29.91,WSW,246,0.0,0.0,81,0.00,,,0.00,WeatherCatV1.15B25,2013-05-20 12:10:00,
2013-05-20 05:15:00,51.7,46.1,29.91,WSW,246,0.0,0.0,81,0.00,,,0.00,WeatherCatV1.15B25,2013-05-20 12:15:00,
2013-05-20 05:20:00,51.7,46.1,29.91,WSW,246,0.0,0.0,81,0.00,,,0.00,WeatherCatV1.15B25,2013-05-20 12:20:00,
2013-05-20 05:21:00,51.7,46.1,29.92,WSW,246,0.0,0.0,81,0.00,,,0.00,WeatherCatV1.15B25,2013-05-20 12:21:00,
2013-05-20 05:26:00,51.6,46.0,29.92,WSW,246,0.0,0.0,81,0.00,,,0.00,WeatherCatV1.15B25,2013-05-20 12:26:00,
2013-05-20 05:31:00,51.5,45.9,29.92,WSW,245,0.0,0.0,81,0.00,,,0.00,WeatherCatV1.15B25,2013-05-20 12:31:00,
2013-05-20 05:36:00,51.3,45.3,29.92,WSW,246,0.0,0.0,80,0.00,,,0.00,WeatherCatV1.15B25,2013-05-20 12:36:00,
2013-05-20 05:41:00,51.2,45.2,29.92,WSW,246,0.0,0.0,80,0.00,,,0.00,WeatherCatV1.15B25,2013-05-20 12:41:00,
2013-05-20 05:46:00,51.1,45.1,29.92,WSW,246,0.0,0.0,80,0.00,,,0.00,WeatherCatV1.15B25,2013-05-20 12:46:00,
2013-05-20 05:51:00,51.0,45.4,29.93,WSW,245,0.0,0.0,81,0.00,,,0.00,WeatherCatV1.15B25,2013-05-20 12:51:00,
2013-05-20 05:56:00,51.0,45.7,29.93,WSW,246,0.0,0.0,82,0.00,,,0.00,WeatherCatV1.15B25,2013-05-20 12:56:00,
2013-05-20 06:01:00,51.0,45.7,29.93,WSW,246,0.0,0.0,82,0.00,,,0.00,WeatherCatV1.15B25,2013-05-20 13:01:00,
2013-05-20 06:06:00,50.9,45.6,29.93,WSW,246,0.0,0.0,82,0.00,,,0.00,WeatherCatV1.15B25,2013-05-20 13:06:00,
2013-05-20 06:11:00,50.9,45.6,29.93,WSW,245,0.0,0.0,82,0.00,,,0.00,WeatherCatV1.15B25,2013-05-20 13:11:00,
2013-05-20 06:16:00,50.8,45.5,29.93,WSW,246,0.0,0.0,82,0.00,,,0.00,WeatherCatV1.15B25,2013-05-20 13:16:00,
2013-05-20 06:21:00,50.8,45.2,29.93,WSW,246,0.0,0.0,81,0.00,,,0.00,WeatherCatV1.15B25,2013-05-20 13:21:00,
2013-05-20 06:26:00,50.7,45.1,29.93,WSW,246,0.0,0.0,81,0.00,,,0.00,WeatherCatV1.15B25,2013-05-20 13:26:00,
2013-05-20 06:31:00,50.8,45.5,29.93,WSW,246,0.0,0.0,82,0.00,,,0.00,WeatherCatV1.15B25,2013-05-20 13:31:00,
2013-05-20 06:36:00,51.0,45.7,29.93,WSW,246,0.0,0.0,82,0.00,,,0.00,WeatherCatV1.15B25,2013-05-20 13:36:00,
2013-05-20 06:41:00,51.0,46.0,29.93,WSW,245,0.0,0.0,83,0.00,,,0.00,WeatherCatV1.15B25,2013-05-20 13:41:00,
2013-05-20 06:46:00,51.2,45.9,29.94,WSW,246,0.0,0.0,82,0.00,,,0.00,WeatherCatV1.15B25,2013-05-20 13:46:00,
2013-05-20 06:51:00,51.4,46.4,29.94,WSW,246,0.0,0.0,83,0.00,,,0.00,WeatherCatV1.15B25,2013-05-20 13:51:00,
2013-05-20 06:56:00,51.8,46.5,29.94,WSW,246,0.0,0.0,82,0.00,,,0.00,WeatherCatV1.15B25,2013-05-20 13:56:00,
2013-05-20 07:01:00,52.1,46.4,29.94,WSW,245,0.0,0.0,81,0.00,,,0.00,WeatherCatV1.15B25,2013-05-20 14:01:00,
2013-05-20 07:06:00,52.4,46.4,29.94,WSW,245,0.0,0.0,80,0.00,,,0.00,WeatherCatV1.15B25,2013-05-20 14:06:00,
2013-05-20 07:11:00,52.8,46.5,29.94,WSW,246,0.0,1.0,79,0.00,,,0.00,WeatherCatV1.15B25,2013-05-20 14:11:00,
2013-05-20 07:16:00,53.4,46.0,29.94,WSW,246,0.0,0.0,76,0.00,,,0.00,WeatherCatV1.15B25,2013-05-20 14:16:00,
2013-05-20 07:21:00,53.9,46.5,29.94,WSW,246,0.0,0.0,76,0.00,,,0.00,WeatherCatV1.15B25,2013-05-20 14:21:00,
2013-05-20 07:26:00,54.7,46.9,29.94,WSW,246,0.0,0.0,75,0.00,,,0.00,WeatherCatV1.15B25,2013-05-20 14:26:00,
2013-05-20 07:31:00,55.4,46.9,29.94,WSW,246,0.0,0.0,73,0.00,,,0.00,WeatherCatV1.15B25,2013-05-20 14:31:00,
2013-05-20 07:36:00,56.2,46.2,29.94,WSW,246,0.0,0.0,69,0.00,,,0.00,WeatherCatV1.15B25,2013-05-20 14:36:00,
2013-05-20 07:41:00,57.2,46.7,29.94,WSW,246,0.0,1.0,68,0.00,,,0.00,WeatherCatV1.15B25,2013-05-20 14:41:00,
2013-05-20 07:46:00,58.3,47.4,29.95,WSW,246,0.0,1.0,67,0.00,,,0.00,WeatherCatV1.15B25,2013-05-20 14:46:00,
2013-05-20 07:51:00,59.3,47.9,29.95,WSW,246,0.0,0.0,66,0.00,,,0.00,WeatherCatV1.15B25,2013-05-20 14:51:00,
2013-05-20 07:56:00,60.2,48.0,29.95,WSW,246,0.0,0.0,64,0.00,,,0.00,WeatherCatV1.15B25,2013-05-20 14:56:00,
2013-05-20 08:01:00,61.3,48.6,29.95,WSW,246,0.0,1.0,63,0.00,,,0.00,WeatherCatV1.15B25,2013-05-20 15:01:00,
2013-05-20 08:06:00,62.5,48.4,29.95,WSW,246,0.0,1.0,60,0.00,,,0.00,WeatherCatV1.15B25,2013-05-20 15:06:00,
2013-05-20 08:11:00,63.7,48.6,29.96,WSW,246,0.0,1.0,58,0.00,,,0.00,WeatherCatV1.15B25,2013-05-20 15:11:00,
2013-05-20 08:16:00,64.7,49.1,29.96,WSW,246,0.0,0.0,57,0.00,,,0.00,WeatherCatV1.15B25,2013-05-20 15:16:00,
2013-05-20 08:21:00,65.6,49.5,29.96,WSW,246,0.0,0.0,56,0.00,,,0.00,WeatherCatV1.15B25,2013-05-20 15:21:00,
2013-05-20 08:26:00,66.3,49.1,29.96,WSW,246,0.0,1.0,54,0.00,,,0.00,WeatherCatV1.15B25,2013-05-20 15:26:00,
2013-05-20 08:31:00,67.0,49.3,29.96,WSW,246,0.0,1.0,53,0.00,,,0.00,WeatherCatV1.15B25,2013-05-20 15:31:00,
2013-05-20 08:36:00,67.8,49.0,29.96,WSW,246,0.0,2.0,51,0.00,,,0.00,WeatherCatV1.15B25,2013-05-20 15:36:00,
2013-05-20 08:41:00,68.7,47.1,29.96,WSW,242,0.0,1.0,46,0.00,,,0.00,WeatherCatV1.15B25,2013-05-20 15:41:00,
2013-05-20 08:46:00,69.3,46.4,29.96,SW,234,0.0,2.0,44,0.00,,,0.00,WeatherCatV1.15B25,2013-05-20 15:46:00,
2013-05-20 08:51:00,69.8,46.3,29.96,SW,223,0.0,2.0,43,0.00,,,0.00,WeatherCatV1.15B25,2013-05-20 15:51:00,
2013-05-20 08:56:00,70.3,47.3,29.96,SW,223,1.0,1.0,44,0.00,,,0.00,WeatherCatV1.15B25,2013-05-20 15:56:00,
2013-05-20 09:01:00,70.8,45.9,29.96,SW,223,0.0,4.0,41,0.00,,,0.00,WeatherCatV1.15B25,2013-05-20 16:01:00,
2013-05-20 09:06:00,71.2,47.5,29.96,SW,223,0.0,1.0,43,0.00,,,0.00,WeatherCatV1.15B25,2013-05-20 16:06:00,
2013-05-20 09:11:00,71.5,46.5,29.96,SW,221,1.0,3.0,41,0.00,,,0.00,WeatherCatV1.15B25,2013-05-20 16:11:00,
2013-05-20 09:16:00,72.0,47.0,29.96,SW,217,0.0,5.0,41,0.00,,,0.00,WeatherCatV1.15B25,2013-05-20 16:16:00,
2013-05-20 09:21:00,72.3,46.6,29.96,SW,217,0.0,2.0,40,0.00,,,0.00,WeatherCatV1.15B25,2013-05-20 16:21:00,
2013-05-20 09:26:00,72.6,48.2,29.96,SW,217,0.0,3.0,42,0.00,,,0.00,WeatherCatV1.15B25,2013-05-20 16:26:00,
2013-05-20 09:31:00,72.8,47.7,29.96,SW,217,0.0,2.0,41,0.00,,,0.00,WeatherCatV1.15B25,2013-05-20 16:31:00,
2013-05-20 09:36:00,73.0,45.2,29.96,SW,217,1.0,3.0,37,0.00,,,0.00,WeatherCatV1.15B25,2013-05-20 16:36:00,
2013-05-20 09:41:00,73.3,46.8,29.95,SW,217,0.0,3.0,39,0.00,,,0.00,WeatherCatV1.15B25,2013-05-20 16:41:00,
2013-05-20 09:46:00,73.5,46.3,29.95,WSW,249,2.0,5.0,38,0.00,,,0.00,WeatherCatV1.15B25,2013-05-20 16:46:00,
2013-05-20 09:51:00,73.8,47.3,29.95,WSW,240,1.0,3.0,39,0.00,,,0.00,WeatherCatV1.15B25,2013-05-20 16:51:00,
2013-05-20 09:56:00,74.0,46.1,29.95,WSW,237,0.0,2.0,37,0.00,,,0.00,WeatherCatV1.15B25,2013-05-20 16:56:00,
2013-05-20 10:01:00,74.2,49.0,29.95,SW,236,0.0,1.0,41,0.00,,,0.00,WeatherCatV1.15B25,2013-05-20 17:01:00,
2013-05-20 10:03:00,74.2,46.9,29.95,SW,236,0.0,2.0,38,0.00,,,0.00,WeatherCatV1.15B25,2013-05-20 17:03:00,
2013-05-20 10:08:00,74.5,49.2,29.95,SW,223,0.0,3.0,41,0.00,,,0.00,WeatherCatV1.15B25,2013-05-20 17:08:00,
2013-05-20 10:13:00,74.8,46.8,29.95,SW,225,0.0,1.0,37,0.00,,,0.00,WeatherCatV1.15B25,2013-05-20 17:13:00,
2013-05-20 10:18:00,75.1,47.7,29.95,SSW,213,0.0,1.0,38,0.00,,,0.00,WeatherCatV1.15B25,2013-05-20 17:18:00,
2013-05-20 10:23:00,75.4,48.7,29.95,SSW,210,2.0,2.0,39,0.00,,,0.00,WeatherCatV1.15B25,2013-05-20 17:23:00,
2013-05-20 10:28:00,75.7,47.6,29.95,SSW,210,0.0,1.0,37,0.00,,,0.00,WeatherCatV1.15B25,2013-05-20 17:28:00,
2013-05-20 10:33:00,76.1,49.3,29.95,SSW,210,0.0,1.0,39,0.00,,,0.00,WeatherCatV1.15B25,2013-05-20 17:33:00,
2013-05-20 10:38:00,76.6,46.9,29.95,SSW,205,1.0,3.0,35,0.00,,,0.00,WeatherCatV1.15B25,2013-05-20 17:38:00,
2013-05-20 10:43:00,77.1,46.5,29.95,SSW,199,1.0,2.0,34,0.00,,,0.00,WeatherCatV1.15B25,2013-05-20 17:43:00,
2013-05-20 10:48:00,77.5,47.7,29.95,SSW,205,0.0,3.0,35,0.00,,,0.00,WeatherCatV1.15B25,2013-05-20 17:48:00,
2013-05-20 10:53:00,77.7,46.3,29.95,SSW,205,0.0,1.0,33,0.00,,,0.00,WeatherCatV1.15B25,2013-05-20 17:53:00,
2013-05-20 10:58:00,77.8,46.4,29.95,SSW,210,0.0,1.0,33,0.00,,,0.00,WeatherCatV1.15B25,2013-05-20 17:58:00,
2013-05-20 11:03:00,78.2,48.3,29.95,SSW,209,0.0,3.0,35,0.00,,,0.00,WeatherCatV1.15B25,2013-05-20 18:03:00,
2013-05-20 11:08:00,78.6,48.6,29.95,SSW,211,1.0,4.0,35,0.00,,,0.00,WeatherCatV1.15B25,2013-05-20 18:08:00,
2013-05-20 11:13:00,79.0,50.5,29.95,ENE,59,2.0,4.0,37,0.00,,,0.00,WeatherCatV1.15B25,2013-05-20 18:13:00,
2013-05-20 16:28:00,90.4,50.8,29.86,NNW,330,0.0,1.0,26,0.00,,,0.00,WeatherCatV1.15B25,2013-05-20 23:28:00,
2013-05-20 16:33:00,90.2,48.5,29.86,North,355,2.0,4.0,24,0.00,,,0.00,WeatherCatV1.15B25,2013-05-20 23:33:00,
2013-05-20 16:38:00,90.0,51.5,29.85,North,355,0.0,0.0,27,0.00,,,0.00,WeatherCatV1.15B25,2013-05-20 23:38:00,
2013-05-20 16:43:00,90.3,50.7,29.85,North,355,0.0,1.0,26,0.00,,,0.00,WeatherCatV1.15B25,2013-05-20 23:43:00,
2013-05-20 16:48:00,90.7,52.1,29.85,WSW,241,1.0,4.0,27,0.00,,,0.00,WeatherCatV1.15B25,2013-05-20 23:48:00,
2013-05-20 16:53:00,91.1,52.4,29.85,WNW,299,2.0,2.0,27,0.00,,,0.00,WeatherCatV1.15B25,2013-05-20 23:53:00,
2013-05-20 16:58:00,91.2,52.5,29.85,WNW,295,1.0,2.0,27,0.00,,,0.00,WeatherCatV1.15B25,2013-05-20 23:58:00,
2013-05-20 17:03:00,91.4,52.7,29.85,WNW,285,0.0,1.0,27,0.00,,,0.00,WeatherCatV1.15B25,2013-05-21 00:03:00,
2013-05-20 17:08:00,91.6,51.8,29.85,NNW,331,0.0,2.0,26,0.00,,,0.00,WeatherCatV1.15B25,2013-05-21 00:08:00,
2013-05-20 17:13:00,91.5,51.7,29.85,NNE,12,0.0,4.0,26,0.00,,,0.00,WeatherCatV1.15B25,2013-05-21 00:13:00,
2013-05-20 17:18:00,91.4,54.6,29.84,NNW,329,2.0,4.0,29,0.00,,,0.00,WeatherCatV1.15B25,2013-05-21 00:18:00,
2013-05-20 17:23:00,91.4,54.6,29.84,NNW,331,0.0,0.0,29,0.00,,,0.00,WeatherCatV1.15B25,2013-05-21 00:23:00,
2013-05-20 17:28:00,91.6,53.8,29.84,NNW,331,0.0,3.0,28,0.00,,,0.00,WeatherCatV1.15B25,2013-05-21 00:28:00,
2013-05-20 17:33:00,91.7,50.8,29.84,NNW,330,0.0,3.0,25,0.00,,,0.00,WeatherCatV1.15B25,2013-05-21 00:33:00,
2013-05-20 17:38:00,91.6,50.8,29.84,NNW,332,3.0,3.0,25,0.00,,,0.00,WeatherCatV1.15B25,2013-05-21 00:38:00,
2013-05-20 17:43:00,91.4,53.7,29.84,WNW,286,0.0,4.0,28,0.00,,,0.00,WeatherCatV1.15B25,2013-05-21 00:43:00,
2013-05-20 17:48:00,91.3,54.5,29.84,WNW,286,0.0,1.0,29,0.00,,,0.00,WeatherCatV1.15B25,2013-05-21 00:48:00,
2013-05-20 17:53:00,91.3,53.6,29.84,West,278,0.0,0.0,28,0.00,,,0.00,WeatherCatV1.15B25,2013-05-21 00:53:00,
2013-05-20 17:58:00,91.2,53.5,29.84,West,277,0.0,3.0,28,0.00,,,0.00,WeatherCatV1.15B25,2013-05-21 00:58:00,
2013-05-20 18:03:00,91.2,53.5,29.83,West,271,0.0,1.0,28,0.00,,,0.00,WeatherCatV1.15B25,2013-05-21 01:03:00,
2013-05-20 18:08:00,91.0,54.3,29.83,West,269,0.0,3.0,29,0.00,,,0.00,WeatherCatV1.15B25,2013-05-21 01:08:00,
2013-05-20 18:13:00,90.8,54.1,29.83,West,270,0.0,0.0,29,0.00,,,0.00,WeatherCatV1.15B25,2013-05-21 01:13:00,
2013-05-20 18:18:00,90.4,55.6,29.83,West,270,1.0,1.0,31,0.00,,,0.00,WeatherCatV1.15B25,2013-05-21 01:18:00,
2013-05-20 18:23:00,90.4,55.6,29.83,West,267,0.0,2.0,31,0.00,,,0.00,WeatherCatV1.15B25,2013-05-21 01:23:00,
2013-05-20 18:28:00,90.4,53.8,29.83,West,260,0.0,1.0,29,0.00,,,0.00,WeatherCatV1.15B25,2013-05-21 01:28:00,
2013-05-20 18:33:00,90.5,54.8,29.83,NW,317,1.0,1.0,30,0.00,,,0.00,WeatherCatV1.15B25,2013-05-21 01:33:00,
2013-05-20 18:38:00,89.9,55.2,29.83,NW,315,0.0,0.0,31,0.00,,,0.00,WeatherCatV1.15B25,2013-05-21 01:38:00,
2013-05-20 18:43:00,89.3,54.7,29.83,NW,314,0.0,0.0,31,0.00,,,0.00,WeatherCatV1.15B25,2013-05-21 01:43:00,
2013-05-20 18:48:00,89.0,54.4,29.83,NW,314,0.0,0.0,31,0.00,,,0.00,WeatherCatV1.15B25,2013-05-21 01:48:00,
2013-05-20 18:53:00,88.8,54.2,29.83,NW,314,0.0,0.0,31,0.00,,,0.00,WeatherCatV1.15B25,2013-05-21 01:53:00,
2013-05-20 18:58:00,88.7,55.0,29.83,NW,314,0.0,0.0,32,0.00,,,0.00,WeatherCatV1.15B25,2013-05-21 01:58:00,
2013-05-20 19:03:00,88.5,55.7,29.83,NW,314,0.0,1.0,33,0.00,,,0.00,WeatherCatV1.15B25,2013-05-21 02:03:00,
2013-05-20 19:08:00,88.2,55.4,29.83,NW,314,0.0,0.0,33,0.00,,,0.00,WeatherCatV1.15B25,2013-05-21 02:08:00,
2013-05-20 19:13:00,87.6,55.7,29.83,NW,314,0.0,0.0,34,0.00,,,0.00,WeatherCatV1.15B25,2013-05-21 02:13:00,
2013-05-20 19:18:00,87.0,56.0,29.83,NW,314,0.0,0.0,35,0.00,,,0.00,WeatherCatV1.15B25,2013-05-21 02:18:00,
2013-05-20 19:23:00,86.3,55.4,29.83,NW,314,0.0,0.0,35,0.00,,,0.00,WeatherCatV1.15B25,2013-05-21 02:23:00,
2013-05-20 19:28:00,85.4,55.4,29.83,NW,314,0.0,0.0,36,0.00,,,0.00,WeatherCatV1.15B25,2013-05-21 02:28:00,
2013-05-20 19:33:00,84.3,55.9,29.83,NW,314,0.0,0.0,38,0.00,,,0.00,WeatherCatV1.15B25,2013-05-21 02:33:00,
2013-05-20 19:38:00,83.1,56.9,29.83,NW,314,0.0,0.0,41,0.00,,,0.00,WeatherCatV1.15B25,2013-05-21 02:38:00,
2013-05-20 19:43:00,82.0,58.5,29.83,NW,314,0.0,0.0,45,0.00,,,0.00,WeatherCatV1.15B25,2013-05-21 02:43:00,
2013-05-20 19:48:00,81.1,58.3,29.83,NW,314,0.0,0.0,46,0.00,,,0.00,WeatherCatV1.15B25,2013-05-21 02:48:00,
2013-05-20 19:53:00,80.3,57.6,29.83,NW,314,0.0,0.0,46,0.00,,,0.00,WeatherCatV1.15B25,2013-05-21 02:53:00,
2013-05-20 19:58:00,79.3,58.5,29.83,NW,314,0.0,0.0,49,0.00,,,0.00,WeatherCatV1.15B25,2013-05-21 02:58:00,
2013-05-20 20:03:00,78.1,57.4,29.83,NW,314,0.0,0.0,49,0.00,,,0.00,WeatherCatV1.15B25,2013-05-21 03:03:00,
2013-05-20 20:08:00,77.2,57.1,29.83,NW,314,0.0,0.0,50,0.00,,,0.00,WeatherCatV1.15B25,2013-05-21 03:08:00,
2013-05-20 20:13:00,76.3,57.4,29.83,NW,314,0.0,0.0,52,0.00,,,0.00,WeatherCatV1.15B25,2013-05-21 03:13:00,
2013-05-20 20:18:00,75.4,57.6,29.83,NW,314,0.0,0.0,54,0.00,,,0.00,WeatherCatV1.15B25,2013-05-21 03:18:00,
2013-05-20 20:23:00,74.5,57.3,29.83,NW,314,0.0,0.0,55,0.00,,,0.00,WeatherCatV1.15B25,2013-05-21 03:23:00,
2013-05-20 20:28:00,73.9,56.7,29.83,NW,314,0.0,0.0,55,0.00,,,0.00,WeatherCatV1.15B25,2013-05-21 03:28:00,
2013-05-20 20:33:00,73.2,56.5,29.83,NW,314,0.0,0.0,56,0.00,,,0.00,WeatherCatV1.15B25,2013-05-21 03:33:00,
2013-05-20 20:38:00,72.5,56.4,29.83,NW,314,0.0,0.0,57,0.00,,,0.00,WeatherCatV1.15B25,2013-05-21 03:38:00,
2013-05-20 20:43:00,72.1,56.5,29.83,NW,314,0.0,0.0,58,0.00,,,0.00,WeatherCatV1.15B25,2013-05-21 03:43:00,
2013-05-20 20:48:00,71.7,56.1,29.83,NW,314,0.0,0.0,58,0.00,,,0.00,WeatherCatV1.15B25,2013-05-21 03:48:00,
2013-05-20 20:53:00,71.4,55.4,29.83,NW,314,0.0,0.0,57,0.00,,,0.00,WeatherCatV1.15B25,2013-05-21 03:53:00,
2013-05-20 20:58:00,71.0,55.5,29.83,NW,314,0.0,0.0,58,0.00,,,0.00,WeatherCatV1.15B25,2013-05-21 03:58:00,
2013-05-20 21:01:00,70.9,55.4,29.84,NW,314,0.0,0.0,58,0.00,,,0.00,WeatherCatV1.15B25,2013-05-21 04:01:00,
2013-05-20 21:06:00,70.6,55.6,29.83,NW,314,0.0,0.0,59,0.00,,,0.00,WeatherCatV1.15B25,2013-05-21 04:06:00,
2013-05-20 21:11:00,70.2,55.7,29.84,NW,314,0.0,0.0,60,0.00,,,0.00,WeatherCatV1.15B25,2013-05-21 04:11:00,
2013-05-20 21:16:00,69.6,55.5,29.84,NW,314,0.0,0.0,61,0.00,,,0.00,WeatherCatV1.15B25,2013-05-21 04:16:00,
2013-05-20 21:21:00,69.2,53.8,29.84,NW,314,0.0,0.0,58,0.00,,,0.00,WeatherCatV1.15B25,2013-05-21 04:21:00,
2013-05-20 21:26:00,68.9,53.5,29.84,NW,314,0.0,0.0,58,0.00,,,0.00,WeatherCatV1.15B25,2013-05-21 04:26:00,
2013-05-20 21:31:00,68.7,53.3,29.84,NW,314,0.0,0.0,58,0.00,,,0.00,WeatherCatV1.15B25,2013-05-21 04:31:00,
2013-05-20 21:36:00,68.4,53.0,29.84,NW,314,0.0,0.0,58,0.00,,,0.00,WeatherCatV1.15B25,2013-05-21 04:36:00,
2013-05-20 21:41:00,68.3,53.4,29.85,NW,314,0.0,0.0,59,0.00,,,0.00,WeatherCatV1.15B25,2013-05-21 04:41:00,
2013-05-20 21:46:00,68.1,52.8,29.85,NW,314,0.0,0.0,58,0.00,,,0.00,WeatherCatV1.15B25,2013-05-21 04:46:00,
2013-05-20 21:51:00,68.0,52.2,29.85,NW,314,0.0,0.0,57,0.00,,,0.00,WeatherCatV1.15B25,2013-05-21 04:51:00,
2013-05-20 21:56:00,67.9,52.1,29.85,NW,314,0.0,0.0,57,0.00,,,0.00,WeatherCatV1.15B25,2013-05-21 04:56:00,
2013-05-20 22:01:00,67.8,51.5,29.85,NW,314,0.0,0.0,56,0.00,,,0.00,WeatherCatV1.15B25,2013-05-21 05:01:00,
2013-05-20 22:06:00,67.6,51.3,29.85,NW,314,0.0,0.0,56,0.00,,,0.00,WeatherCatV1.15B25,2013-05-21 05:06:00,
2013-05-20 22:11:00,67.5,51.2,29.85,NW,314,0.0,0.0,56,0.00,,,0.00,WeatherCatV1.15B25,2013-05-21 05:11:00,
2013-05-20 22:16:00,67.3,51.1,29.85,NW,314,0.0,0.0,56,0.00,,,0.00,WeatherCatV1.15B25,2013-05-21 05:16:00,
2013-05-20 22:21:00,67.0,50.8,29.85,NW,314,0.0,0.0,56,0.00,,,0.00,WeatherCatV1.15B25,2013-05-21 05:21:00,
2013-05-20 22:26:00,66.8,51.1,29.85,NW,314,0.0,0.0,57,0.00,,,0.00,WeatherCatV1.15B25,2013-05-21 05:26:00,
2013-05-20 22:31:00,66.6,51.4,29.85,NW,314,0.0,0.0,58,0.00,,,0.00,WeatherCatV1.15B25,2013-05-21 05:31:00,
2013-05-20 22:36:00,66.3,51.1,29.85,NW,314,0.0,0.0,58,0.00,,,0.00,WeatherCatV1.15B25,2013-05-21 05:36:00,
2013-05-20 22:41:00,66.0,50.8,29.85,NW,314,0.0,0.0,58,0.00,,,0.00,WeatherCatV1.15B25,2013-05-21 05:41:00,
2013-05-20 22:46:00,65.7,51.0,29.85,NW,314,0.0,0.0,59,0.00,,,0.00,WeatherCatV1.15B25,2013-05-21 05:46:00,
2013-05-20 22:51:00,65.4,50.7,29.85,NW,314,0.0,0.0,59,0.00,,,0.00,WeatherCatV1.15B25,2013-05-21 05:51:00,
2013-05-20 22:56:00,65.1,50.4,29.85,NW,314,0.0,0.0,59,0.00,,,0.00,WeatherCatV1.15B25,2013-05-21 05:56:00,
2013-05-20 23:01:00,64.8,50.1,29.85,NW,314,0.0,0.0,59,0.00,,,0.00,WeatherCatV1.15B25,2013-05-21 06:01:00,
2013-05-20 23:06:00,64.6,49.9,29.85,NW,314,0.0,0.0,59,0.00,,,0.00,WeatherCatV1.15B25,2013-05-21 06:06:00,
2013-05-20 23:11:00,64.3,50.6,29.85,NW,314,0.0,0.0,61,0.00,,,0.00,WeatherCatV1.15B25,2013-05-21 06:11:00,
2013-05-20 23:16:00,63.9,50.6,29.85,NW,314,0.0,0.0,62,0.00,,,0.00,WeatherCatV1.15B25,2013-05-21 06:16:00,
2013-05-20 23:21:00,63.8,50.1,29.85,NW,314,0.0,0.0,61,0.00,,,0.00,WeatherCatV1.15B25,2013-05-21 06:21:00,
2013-05-20 23:26:00,63.6,50.3,29.85,NW,314,0.0,0.0,62,0.00,,,0.00,WeatherCatV1.15B25,2013-05-21 06:26:00,
2013-05-20 23:31:00,63.3,49.6,29.85,NW,314,0.0,0.0,61,0.00,,,0.00,WeatherCatV1.15B25,2013-05-21 06:31:00,
2013-05-20 23:36:00,63.1,49.4,29.85,NW,314,0.0,0.0,61,0.00,,,0.00,WeatherCatV1.15B25,2013-05-21 06:36:00,
2013-05-20 23:41:00,62.8,49.1,29.85,NW,314,0.0,0.0,61,0.00,,,0.00,WeatherCatV1.15B25,2013-05-21 06:41:00,
2013-05-20 23:46:00,62.6,49.8,29.85,NW,314,0.0,0.0,63,0.00,,,0.00,WeatherCatV1.15B25,2013-05-21 06:46:00,
2013-05-20 23:51:00,62.3,49.1,29.85,NW,314,0.0,0.0,62,0.00,,,0.00,WeatherCatV1.15B25,2013-05-21 06:51:00,
2013-05-20 23:56:00,62.2,49.4,29.85,NW,314,0.0,0.0,63,0.00,,,0.00,WeatherCatV1.15B25,2013-05-21 06:56:00,